Fort Leonard Wood, MO

12:16 PM CDT on April 30, 2017 (GMT -0500)
Waynesville Regional At Forney Field

Weather History for KTBN - October, 2013

Change the Weather History Date:

Tuesday, October 29, 2013

  Actual Average Record
Temperature  
Mean Temperature 55 °F -  
Max Temperature 63 °F 62 °F 81 °F (2016)
Min Temperature 47 °F 47 °F 26 °F (2012)
Degree Days  
Heating Degree Days 10    
Growing Degree Days 5 (Base 50)    
Moisture  
Dew Point 57 °F    
Average Humidity 100    
Maximum Humidity 100    
Minimum Humidity 99    
Precipitation  
Precipitation 1.30 in - - ()
Sea Level Pressure  
Sea Level Pressure 30.11 in    
Wind  
Wind Speed 10 mph (SE)    
Max Wind Speed 21 mph    
Max Gust Speed 25 mph    
Visibility 7 miles    
Events Rain , Thunderstorm    
Averages and records for this station are not official NWS values.
T = Trace of Precipitation, MM = Missing Value Source: NWS Daily Summary

Daily Weather History Graph

Daily Weather History Graph

Search for Another Location

Airport or City:

Trip Planner

Search our weather history database for the weather conditions in past years. The results will help you decide how hot, cold, wet, or windy it might be!

Date:

Astronomy

Oct. 29, 2013 Rise Set
Actual Time 7:30 AM CDT 6:12 PM CDT
Civil Twilight 7:03 AM CDT 6:39 PM CDT
Nautical Twilight 6:33 AM CDT 7:10 PM CDT
Astronomical Twilight 6:02 AM CDT 7:41 PM CDT
Moon 2:26 AM CDT (10/29) 3:22 PM CDT (10/29)
Length of Visible Light 11h 35m
Length of Day
10h 41m
Waning Crescent, 25% of the Moon is Illuminated
Oct 29
Waning Crescent
Nov 3
New
Nov 9
First Quarter
Nov 17
Full
Nov 25
Last Quarter

Hourly Weather History & Observations

Time (CDT) Temp. Dew Point Humidity Pressure Visibility Wind Dir Wind Speed Gust Speed Precip Events Conditions
12:58 AM 47.8 °F 47.5 °F 99% 30.19 in 10.0 mi SE 6.9 mph - N/A   Clear
1:58 AM 49.5 °F 49.1 °F 99% 30.18 in 10.0 mi SE 8.1 mph - N/A   Scattered Clouds
2:58 AM 49.3 °F 49.3 °F 100% 30.19 in 10.0 mi SE 6.9 mph - N/A   Mostly Cloudy
3:58 AM 50.2 °F 50.2 °F 100% 30.17 in 10.0 mi SE 9.2 mph - N/A   Mostly Cloudy
4:58 AM 51.1 °F 51.1 °F 100% 30.16 in 10.0 mi SE 10.4 mph - N/A   Partly Cloudy
5:52 AM 51.8 °F 51.8 °F 100% 30.14 in 10.0 mi SE 10.4 mph - N/A Rain Light Rain
5:58 AM 52.0 °F 52.0 °F 100% 30.14 in 10.0 mi SE 9.2 mph - 0.00 in Rain Light Rain
6:58 AM 53.2 °F 53.2 °F 100% 30.16 in 5.0 mi SE 10.4 mph - 0.09 in Rain Light Rain
7:06 AM - - N/A% - - SE 10.4 mph - N/A   Unknown
7:07 AM 53.6 °F 53.6 °F 100% 30.14 in 5.0 mi SE 11.5 mph - N/A Rain Light Rain
7:58 AM 54.0 °F 54.0 °F 100% 30.16 in 3.0 mi SE 12.7 mph - 0.24 in Rain Rain
8:03 AM 53.6 °F 53.6 °F 100% 30.16 in 2.5 mi SE 11.5 mph - N/A Rain Rain
8:23 AM 53.6 °F 53.6 °F 100% 30.15 in 3.0 mi SE 11.5 mph - N/A Rain Light Rain
8:38 AM 53.6 °F 53.6 °F 100% 30.16 in 2.5 mi SE 11.5 mph - N/A Rain Rain
8:58 AM 53.6 °F 53.6 °F 100% 30.20 in 2.5 mi South 8.1 mph - 0.29 in Rain Rain
9:03 AM 55.4 °F 55.4 °F 100% 30.19 in 2.5 mi SSE 10.4 mph - N/A Rain Rain
9:08 AM 55.4 °F 55.4 °F 100% 30.18 in 3.0 mi SSE 12.7 mph - N/A Rain Rain
9:13 AM 55.4 °F 55.4 °F 100% 30.17 in 3.0 mi SE 12.7 mph - N/A Rain Light Rain
9:18 AM 55.4 °F 55.4 °F 100% 30.17 in 2.5 mi SE 13.8 mph - N/A Rain Light Rain
9:23 AM 55.4 °F 55.4 °F 100% 30.17 in 3.0 mi SE 12.7 mph - N/A Rain Light Rain
9:58 AM 55.2 °F 55.2 °F 100% 30.18 in 4.0 mi SE 12.7 mph - 0.13 in Rain Light Rain
10:53 AM 55.4 °F 55.4 °F 100% 30.19 in 2.5 mi SSE 9.2 mph - N/A Rain Rain
10:58 AM 55.9 °F 55.9 °F 100% 30.20 in 2.5 mi SSE 12.7 mph - 0.19 in Rain Rain
11:13 AM 55.4 °F 55.4 °F 100% 30.17 in 3.0 mi SE 12.7 mph - N/A Rain Rain
11:23 AM 55.4 °F 55.4 °F 100% 30.18 in 4.0 mi SE 11.5 mph - N/A Rain Light Rain
11:46 AM 57.2 °F 57.2 °F 100% 30.14 in 4.0 mi ESE 17.3 mph - N/A   Overcast
11:47 AM 57.2 °F 57.2 °F 100% 30.14 in 4.0 mi SE 17.3 mph - N/A Rain Light Rain
11:49 AM 57.2 °F 57.2 °F 100% 30.13 in 4.0 mi SE 18.4 mph - N/A   Overcast
11:50 AM 57.2 °F 57.2 °F 100% 30.13 in 4.0 mi SE 19.6 mph - N/A Rain Light Rain
11:58 AM 57.2 °F 57.2 °F 100% 30.14 in 4.0 mi ESE 16.1 mph - 0.17 in Rain Light Rain
12:08 PM 57.2 °F 57.2 °F 100% 30.13 in 2.0 mi SE 17.3 mph - N/A Rain Heavy Rain
12:13 PM 57.2 °F 57.2 °F 100% 30.12 in 1.8 mi SE 19.6 mph - N/A Rain Light Rain
12:18 PM 57.2 °F 57.2 °F 100% 30.12 in 3.0 mi SE 20.7 mph 25.3 mph N/A Rain Light Rain
12:37 PM 57.2 °F 57.2 °F 100% 30.12 in 9.0 mi SE 15.0 mph 23.0 mph N/A   Overcast
12:39 PM 57.2 °F 57.2 °F 100% 30.12 in 10.0 mi SE 17.3 mph 23.0 mph N/A   Light Drizzle
12:40 PM 57.2 °F 57.2 °F 100% 30.12 in 10.0 mi SE 16.1 mph 23.0 mph N/A   Overcast
12:47 PM 57.2 °F 57.2 °F 100% 30.12 in 10.0 mi SSE 11.5 mph 20.7 mph N/A   Light Drizzle
12:58 PM 56.8 °F 56.8 °F 100% 30.12 in 10.0 mi SSE 15.0 mph - 0.11 in   Light Drizzle
12:59 PM 57.2 °F 57.2 °F 100% 30.11 in 10.0 mi SE 15.0 mph - N/A   Overcast
1:58 PM 57.7 °F 57.7 °F 100% 30.08 in 10.0 mi SSE 13.8 mph - 0.00 in   Overcast
2:58 PM 59.0 °F 58.8 °F 99% 30.05 in 10.0 mi SSE 13.8 mph 20.7 mph N/A   Overcast
3:58 PM 59.9 °F 59.9 °F 100% 30.04 in 10.0 mi SSE 8.1 mph - N/A   Overcast
4:37 PM 60.8 °F 60.8 °F 100% 30.04 in 10.0 mi SSE 8.1 mph - N/A   Light Drizzle
4:57 PM 60.8 °F 60.8 °F 100% 30.03 in 2.5 mi SSE 9.2 mph - N/A Rain Rain
4:58 PM 60.1 °F 60.1 °F 100% 30.04 in 2.5 mi SSE 9.2 mph - 0.05 in Rain Rain
5:08 PM 60.8 °F 60.8 °F 100% 30.03 in 4.0 mi South 8.1 mph - N/A Rain Light Rain
5:14 PM 60.8 °F 60.8 °F 100% 30.02 in 10.0 mi SSE 10.4 mph - N/A   Overcast
5:25 PM 60.8 °F 60.8 °F 100% 30.03 in 10.0 mi SSE 6.9 mph - N/A   Light Drizzle
5:52 PM 60.8 °F 60.8 °F 100% 30.03 in 9.0 mi South 8.1 mph - N/A   Overcast
5:58 PM 60.6 °F 60.6 °F 100% 30.04 in 9.0 mi SSE 9.2 mph - 0.03 in   Overcast
6:10 PM 60.8 °F 60.8 °F 100% 30.02 in 9.0 mi SSE 8.1 mph - N/A Thunderstorm Thunderstorm
6:35 PM 60.8 °F 60.8 °F 100% 30.04 in 10.0 mi Calm Calm - N/A Thunderstorm Thunderstorm
6:49 PM 60.8 °F 60.8 °F 100% 30.04 in 9.0 mi SSE 6.9 mph - N/A   Overcast
6:58 PM 61.0 °F 61.0 °F 100% 30.04 in 10.0 mi SSE 5.8 mph - N/A   Overcast
7:03 PM 60.8 °F 60.8 °F 100% 30.04 in 10.0 mi SSE 8.1 mph - N/A   Overcast
7:23 PM 60.8 °F 60.8 °F 100% 30.04 in 8.0 mi SSE 8.1 mph - N/A   Overcast
7:58 PM 61.5 °F 61.5 °F 100% 30.06 in 9.0 mi South 4.6 mph - N/A   Overcast
8:58 PM 62.8 °F 62.8 °F 100% 30.06 in 10.0 mi South 6.9 mph - N/A   Overcast
9:58 PM 63.0 °F 63.0 °F 100% 30.07 in 10.0 mi South 5.8 mph - N/A   Overcast
10:08 PM 62.6 °F 62.6 °F 100% 30.07 in 10.0 mi South 5.8 mph - N/A   Overcast
10:13 PM 62.6 °F 62.6 °F 100% 30.07 in 10.0 mi South 5.8 mph - N/A   Overcast
10:28 PM 62.6 °F 62.6 °F 100% 30.07 in 10.0 mi SSE 6.9 mph - N/A   Overcast
10:58 PM 62.6 °F 62.6 °F 100% 30.06 in 10.0 mi SSE 5.8 mph - N/A   Mostly Cloudy
11:58 PM 62.4 °F 62.4 °F 100% 30.06 in 10.0 mi SSE 4.6 mph - N/A   Partly Cloudy